This is the latest recevied weather packets stored in our database for station/object KE4EST. If no packets are shown the sender has not sent any weather packets the latest 1 day(s).
| Time | Temp. | Humidity | Pressure | Rain* | Wind** | Luminosity | Snow |
|---|---|---|---|---|---|---|---|
| 1778006998 | 25° C | 36% | 1014.9 hPa | 0 mm | 0.45 m/s, 122° | 481 W/m² | - |
| 1778006695 | 24.44° C | 36% | 1014.8 hPa | 0 mm | 0.89 m/s, 118° | 277 W/m² | - |
| 1778006391 | 25° C | 33% | 1015.1 hPa | 0 mm | 0.89 m/s, 222° | 614 W/m² | - |
| 1778006089 | 25.56° C | 35% | 1014.9 hPa | 0 mm | 0.89 m/s, 142° | 519 W/m² | - |
| 1778005785 | 25° C | 35% | 1015 hPa | 0 mm | 0 m/s | 651 W/m² | - |
| 1778005482 | 25° C | 33% | 1015 hPa | 0 mm | 0.45 m/s, 117° | 609 W/m² | - |
| 1778005178 | 25° C | 35% | 1015.3 hPa | 0 mm | 0.45 m/s, 97° | 638 W/m² | - |
| 1778004876 | 25° C | 35% | 1015.3 hPa | 0 mm | 0.89 m/s, 146° | 493 W/m² | - |
| 1778004573 | 24.44° C | 37% | 1015.4 hPa | 0 mm | 0.45 m/s, 123° | 594 W/m² | - |
| 1778004269 | 24.44° C | 33% | 1015.4 hPa | 0 mm | 0.89 m/s, 135° | 552 W/m² | - |
| 1778003966 | 24.44° C | 35% | 1015.4 hPa | 0 mm | 0.45 m/s, 155° | 581 W/m² | - |
| 1778003662 | 23.33° C | 35% | 1015.5 hPa | 0 mm | 0.45 m/s, 218° | 556 W/m² | - |
| 1778003358 | 23.33° C | 35% | 1015.5 hPa | 0 mm | 0.89 m/s, 151° | 640 W/m² | - |
| 1778003056 | 23.89° C | 36% | 1015.7 hPa | 0 mm | 0.45 m/s, 169° | 323 W/m² | - |
| 1778002752 | 23.89° C | 39% | 1015.6 hPa | 0 mm | 0.89 m/s, 209° | 623 W/m² | - |
| 1778002449 | 22.78° C | 42% | 1016.1 hPa | 0 mm | 0 m/s | 644 W/m² | - |
| 1778002146 | 22.78° C | 43% | 1016.3 hPa | 0 mm | 0.45 m/s, 96° | 434 W/m² | - |
| 1778001844 | 23.33° C | 44% | 1016 hPa | 0 mm | 0.45 m/s, 117° | 374 W/m² | - |
| 1778001543 | 23.33° C | 41% | 1016.1 hPa | 0 mm | 0.45 m/s, 193° | 446 W/m² | - |
| 1778001240 | 23.33° C | 45% | 1016.1 hPa | 0 mm | 0.45 m/s, 151° | 427 W/m² | - |
| 1778000936 | 23.33° C | 45% | 1016.3 hPa | 0 mm | 0.45 m/s, 228° | 224 W/m² | - |
| 1778000634 | 23.33° C | 42% | 1016.2 hPa | 0 mm | 1.34 m/s, 204° | 214 W/m² | - |
| 1778000329 | 22.78° C | 41% | 1016.1 hPa | 0 mm | 0.45 m/s, 150° | 594 W/m² | - |
| 1778000025 | 23.33° C | 44% | 1016.1 hPa | 0 mm | 0.45 m/s, 97° | 201 W/m² | - |
| 1777999720 | 23.33° C | 44% | 1016.3 hPa | 0 mm | 0 m/s | 311 W/m² | - |
* Rain latest hour (hover to see other rain measurements)
** Current wind speed in m/s (hover to see current wind gust speed)